星链-37067(STARLINK-37067)

导读

STARLINK-37067(NORAD编号68086)是美国SpaceX公司星链(Starlink)星座中的一颗低轨通信卫星,采用Starlink V1.0平台设计,归属SpaceX全球卫星互联网项目。 该卫星运行于近地轨道,近地点约570公里,远地点约574公里,轨道倾角70.003°,绕行周期约96.1分钟,可配合星链星座为全球提供高速低延迟互联网接入服务,重点服务偏远区域,并支持行业通信应用,是星链万颗星座规模部署中的组成单元。

基本信息
目录编号:
68086
目录名称:
STARLINK-37067
国际标识:
2026-042T
轨道中心:
EARTH
卫星名称:
星链-37067
卫星全名:
星链-37067(STARLINK-37067)
卫星状态:
在轨 (已飞行146 天)
发射日期:
2026-03-04 UTC
国别 :
美国 (US)
星等 :
--
轨道信息
数据来源 国际轨道数据 AOE轨道数据
星历时间 2026-07-27T14:13:59+0800
19小时前
查看轨道信息
2026-07-26T07:00:00+0800
2天前
查看轨道信息
半长轴 6840.815km 6840.885km
偏心率 0.0000772 0.0000735
轨道倾角 53.156° 53.155°
近地点辐角 51.476° 84.309°
升交点赤经 246.166° 252.253°
平近点角 308.631° 283.200°
近地点 462.149km 462.245km
远地点 463.207km 463.251km
周期 93.847分钟 93.849分钟
每日圈数 15.344086 15.34385
详细信息
固有亮度:
5
最大亮度:
2.5
卫星平台:
Starlink V1.0
覆盖范围:
全球
运营商:
太空探索技术公司
运营商所在国:
美国
制造商(研发单位):
太空探索技术公司
制造商所在国:
美国
使用方式:
暂无
卫星简介
Starlink 计划是 SpaceX 推出的全球卫星互联网项目,通过发射低轨道卫星,为全球尤其是偏远地区提供高速、低延迟的互联网服务。自 2019 年起,Starlink 已部署数千颗卫星,旨在缩小全球数字鸿沟,推动互联网普及。该项目还为军事、航空等行业提供通信支持,带来广泛经济效益。
2D轨道图
3D轨道图
轨道高度分析图
轨道倾角分析图
轨道综合分析图
查看轨道综合分析图